EW5830 Weather Reports


time (UTC)temp
F
wind
direction
speed
knots
gust
knots
rain 1hr
in
rain 24hr
in
rain mn
in
humidity
%
barometer
mb
20260507052524 54 232 6.1 14.8 0.00 0.00 0.00 86 1019.6
20260507052003 54 232 6.1 14.8 0.00 0.00 0.00 86 1019.6
20260507051503 54 232 6.1 14.8 0.00 0.00 0.00 86 1019.6
20260507051003 54 232 5.2 14.8 0.00 0.00 0.00 86 1019.6
20260507050503 54 230 6.1 11.3 0.00 0.00 0.00 86 1019.6
20260507050003 54 233 6.1 13.0 0.00 0.00 0.00 86 1019.5
20260507045524 54 225 7.0 13.0 0.00 0.00 0.00 86 1019.4
20260507045003 54 228 7.8 14.8 0.00 0.00 0.00 86 1019.5
20260507044503 54 233 7.8 16.5 0.00 0.00 0.00 86 1019.4
20260507044003 54 235 7.8 16.5 0.00 0.00 0.00 86 1019.4
20260507043503 54 236 7.8 18.2 0.00 0.00 0.00 86 1019.4
20260507043003 54 238 8.7 19.1 0.00 0.00 0.00 85 1019.4
20260507042524 54 239 7.8 19.1 0.00 0.00 0.00 85 1019.4
20260507042024 54 239 7.0 15.6 0.00 0.00 0.00 85 1019.3
20260507041503 54 238 6.1 13.0 0.00 0.00 0.00 85 1019.3
20260507041003 54 241 7.0 13.9 0.00 0.00 0.00 85 1019.2
20260507040503 54 242 6.1 13.9 0.00 0.00 0.00 85 1019.1
20260507040003 54 238 6.1 12.2 0.00 0.00 0.00 85 1019.1
20260507035503 54 229 6.1 13.0 0.00 0.00 0.00 85 1019.0
20260507035003 54 215 5.2 13.0 0.00 0.00 0.00 85 1019.0
20260507034503 54 209 5.2 12.2 0.00 0.00 0.00 85 1019.0
20260507034024 55 212 4.3 12.2 0.00 0.00 0.00 85 1019.0
20260507033524 55 221 5.2 12.2 0.00 0.00 0.00 85 1018.9
20260507033003 55 231 6.1 13.9 0.00 0.00 0.00 85 1018.8
20260507032503 55 235 7.0 14.8 0.00 0.00 0.00 85 1018.8
20260507032003 55 237 6.1 14.8 0.00 0.00 0.00 85 1018.7
20260507031503 55 244 6.1 14.8 0.00 0.00 0.00 84 1018.7
20260507031003 55 249 7.0 14.8 0.00 0.00 0.00 84 1018.7
20260507030503 55 249 6.1 13.9 0.00 0.00 0.00 84 1018.6
20260507030003 55 248 6.1 13.9 0.00 0.00 0.00 84 1018.6
20260507025503 55 247 7.0 14.8 0.00 0.00 0.00 84 1018.6
20260507025003 55 241 7.0 14.8 0.00 0.00 0.00 84 1018.7
20260507024503 55 236 7.0 14.8 0.00 0.00 0.00 83 1018.7
20260507024003 55 238 7.0 14.8 0.00 0.00 0.00 83 1018.7
20260507023503 56 242 7.0 14.8 0.00 0.00 0.00 83 1018.7
20260507023003 56 243 6.1 13.9 0.00 0.00 0.00 83 1018.7
20260507022503 56 243 6.1 13.9 0.00 0.00 0.00 82 1018.7
20260507022003 56 250 6.1 13.0 0.00 0.00 0.00 82 1018.8
20260507021503 56 248 6.1 13.0 0.00 0.00 0.00 82 1018.8
20260507021003 56 242 7.0 13.0 0.00 0.00 0.00 81 1018.7
20260507020503 57 241 7.0 13.0 0.00 0.00 0.00 81 1018.7
20260507020003 57 243 6.1 13.0 0.00 0.00 0.00 81 1018.8
20260507015503 57 235 6.1 14.8 0.00 0.00 0.00 80 1018.8
20260507015003 57 231 7.0 14.8 0.00 0.00 0.00 80 1018.7
20260507014503 58 236 7.0 14.8 0.00 0.00 0.00 80 1018.8
20260507014003 58 239 7.0 13.0 0.00 0.00 0.00 79 1018.7
20260507013524 58 233 7.0 15.6 0.00 0.00 0.00 79 1018.8
20260507013003 58 234 7.0 15.6 0.00 0.00 0.00 78 1018.7
20260507012524 58 235 7.0 14.8 0.00 0.00 0.00 78 1018.7
20260507012003 58 235 7.0 19.1 0.00 0.00 0.00 78 1018.7
20260507011503 59 237 7.8 19.1 0.00 0.00 0.00 77 1018.8
20260507011003 59 232 7.0 16.5 0.00 0.00 0.00 76 1018.8
20260507010524 60 233 6.1 15.6 0.00 0.00 0.00 75 1018.9
20260507010003 60 233 6.1 15.6 0.00 0.00 0.00 76 1018.8
20260507005503 60 232 7.0 15.6 0.00 0.00 0.00 75 1018.7
20260507005003 61 230 7.8 16.5 0.00 0.00 0.00 74 1018.8
20260507004503 61 227 8.7 16.5 0.00 0.00 0.00 74 1018.8
20260507004003 61 229 7.8 16.5 0.00 0.00 0.00 73 1018.8
20260507003503 62 229 7.0 14.8 0.00 0.00 0.00 73 1018.8
20260507003003 62 225 7.0 14.8 0.00 0.00 0.00 72 1018.8
20260507002503 63 233 7.0 12.2 0.00 0.00 0.00 72 1018.9
20260507002003 63 240 6.1 14.8 0.00 0.00 0.00 72 1018.9
20260507001503 63 238 5.2 14.8 0.00 0.00 0.00 72 1018.8
20260507001003 64 236 5.2 13.0 0.00 0.00 0.00 72 1018.9
20260507000503 63 231 6.1 15.6 0.00 0.00 0.00 73 1019.0
20260507000003 63 232 7.8 15.6 0.00 0.00 0.00 72 1019.0
20260506235503 63 235 7.8 15.6 0.00 0.00 0.00 72 1019.0
20260506235003 63 235 7.8 15.6 0.00 0.00 0.00 72 1019.0
20260506234503 63 232 7.8 13.9 0.00 0.00 0.00 71 1018.9
20260506234003 64 226 7.0 13.9 0.00 0.00 0.00 72 1019.0
20260506233503 64 223 6.1 13.9 0.00 0.00 0.00 71 1019.0
20260506233003 64 232 7.0 14.8 0.00 0.00 0.00 72 1019.1
20260506232503 64 235 7.0 14.8 0.00 0.00 0.00 71 1019.1
20260506232003 64 236 7.0 13.0 0.00 0.00 0.00 72 1019.1
20260506231524 64 238 7.0 13.9 0.00 0.00 0.00 72 1019.1
20260506231003 64 238 7.8 15.6 0.00 0.00 0.00 71 1019.2
20260506230503 64 238 7.0 15.6 0.00 0.00 0.00 70 1019.2
20260506230003 65 241 6.1 14.8 0.00 0.00 0.00 69 1019.2
20260506225503 65 245 7.0 13.9 0.00 0.00 0.00 70 1019.3
20260506225003 65 243 7.0 14.8 0.00 0.00 0.00 69 1019.3
20260506224503 65 236 7.0 14.8 0.00 0.00 0.00 70 1019.4
20260506224003 65 231 7.0 13.9 0.00 0.00 0.00 71 1019.4
20260506223503 65 234 7.8 14.8 0.00 0.00 0.00 69 1019.5
20260506223024 65 238 7.0 14.8 0.00 0.00 0.00 68 1019.6
20260506222503 66 245 6.1 13.9 0.00 0.00 0.00 68 1019.6
20260506222003 66 243 6.1 13.0 0.00 0.00 0.00 68 1019.7
20260506221504 67 236 6.1 14.8 0.00 0.00 0.00 68 1019.7
20260506221024 67 238 7.0 14.8 0.00 0.00 0.00 69 1019.8
20260506220524 66 240 7.0 12.2 0.00 0.00 0.00 67 1019.9
20260506220003 66 239 7.0 13.9 0.00 0.00 0.00 67 1019.8
20260506215503 67 239 6.1 13.0 0.00 0.00 0.00 67 1020.0
20260506215003 67 239 6.1 13.0 0.00 0.00 0.00 67 1020.1
20260506214503 67 238 7.0 13.0 0.00 0.00 0.00 66 1020.0
20260506214003 68 242 6.1 12.2 0.00 0.00 0.00 66 1020.1
20260506213503 68 245 6.1 12.2 0.00 0.00 0.00 66 1020.1
20260506213003 68 246 6.1 12.2 0.00 0.00 0.00 66 1020.2
20260506212503 67 239 6.1 12.2 0.00 0.00 0.00 67 1020.1
20260506212003 68 238 6.1 12.2 0.00 0.00 0.00 66 1020.1
20260506211503 68 242 6.1 11.3 0.00 0.00 0.00 66 1020.1
20260506211003 68 236 5.2 10.4 0.00 0.00 0.00 65 1020.1
20260506210503 68 234 5.2 11.3 0.00 0.00 0.00 67 1020.1
20260506210003 68 238 5.2 11.3 0.00 0.00 0.00 67 1020.2
20260506205503 67 239 5.2 11.3 0.00 0.00 0.00 66 1020.2
20260506205003 68 234 5.2 11.3 0.00 0.00 0.00 65 1020.2
20260506204503 69 230 5.2 11.3 0.00 0.00 0.00 65 1020.3
20260506204003 69 231 5.2 10.4 0.00 0.00 0.00 64 1020.3
20260506203503 69 231 4.3 9.6 0.00 0.00 0.00 65 1020.3
20260506203024 68 235 5.2 11.3 0.00 0.00 0.00 65 1020.3
20260506202503 70 240 4.3 11.3 0.00 0.00 0.00 63 1020.4
20260506202024 70 242 4.3 8.7 0.00 0.00 0.00 65 1020.4
20260506201503 69 235 5.2 9.6 0.00 0.00 0.00 65 1020.5
20260506201003 69 233 5.2 9.6 0.00 0.00 0.00 65 1020.5
20260506200503 70 230 4.3 10.4 0.00 0.00 0.00 64 1020.6
20260506200003 70 228 5.2 11.3 0.00 0.00 0.00 65 1020.6
20260506195503 69 225 5.2 12.2 0.00 0.00 0.00 65 1020.6
20260506195003 70 214 5.2 12.2 0.00 0.00 0.00 65 1020.6
20260506194503 69 210 5.2 10.4 0.00 0.00 0.00 66 1020.7
20260506194003 69 214 5.2 10.4 0.00 0.00 0.00 64 1020.7
20260506193524 69 218 4.3 10.4 0.00 0.00 0.00 65 1020.7
20260506193003 69 217 4.3 10.4 0.00 0.00 0.00 64 1020.8
20260506192503 69 213 4.3 9.6 0.00 0.00 0.00 69 1020.8
20260506192003 68 220 5.2 12.2 0.00 0.00 0.00 66 1020.9
20260506191503 68 229 5.2 12.2 0.00 0.00 0.00 68 1021.0
20260506191003 68 222 4.3 11.3 0.00 0.00 0.00 67 1020.9
20260506190503 68 223 4.3 9.6 0.00 0.00 0.00 66 1021.0
20260506190003 68 235 3.5 8.7 0.00 0.00 0.00 67 1021.1
20260506185503 68 230 4.3 8.7 0.00 0.00 0.00 67 1021.1
20260506185003 68 223 4.3 12.2 0.00 0.00 0.00 66 1021.0
20260506184503 68 214 3.5 12.2 0.00 0.00 0.00 66 1021.0
20260506184003 68 205 3.5 11.3 0.00 0.00 0.00 67 1021.0
20260506183524 68 218 3.5 9.6 0.00 0.00 0.00 68 1021.1
20260506183003 67 215 4.3 11.3 0.00 0.00 0.00 68 1021.1
20260506182503 67 202 3.5 11.3 0.00 0.00 0.00 66 1021.1
20260506182003 67 212 3.5 7.8 0.00 0.00 0.00 67 1021.0
20260506181503 67 228 4.3 10.4 0.00 0.00 0.00 70 1021.1
20260506181003 66 234 4.3 10.4 0.00 0.00 0.00 69 1021.1
20260506180503 66 222 4.3 10.4 0.00 0.00 0.00 68 1021.1
20260506180024 66 219 4.3 11.3 0.00 0.00 0.00 69 1021.0
20260506175503 66 217 4.3 11.3 0.00 0.00 0.00 68 1020.9
20260506175003 66 208 3.5 10.4 0.00 0.00 0.00 70 1021.0
20260506174504 66 220 4.3 8.7 0.00 0.00 0.00 71 1021.0
20260506174003 65 234 3.5 8.7 0.00 0.00 0.00 69 1021.0
20260506173503 64 243 3.5 8.7 0.00 0.00 0.00 72 1021.0
20260506173003 63 225 3.5 8.7 0.00 0.00 0.00 72 1021.1
20260506172503 64 209 3.5 7.0 0.00 0.00 0.00 71 1021.0
20260506172003 64 224 2.6 6.1 0.00 0.00 0.00 74 1021.1
20260506171503 61 238 3.5 7.0 0.00 0.00 0.00 75 1021.2
20260506171024 61 246 3.5 7.0 0.00 0.00 0.00 74 1021.2
20260506170503 61 220 3.5 7.0 0.00 0.00 0.00 75 1021.2
20260506170003 61 208 2.6 7.0 0.00 0.00 0.00 74 1021.1
20260506165503 62 219 2.6 8.7 0.00 0.00 0.00 73 1021.0
20260506165003 63 206 2.6 8.7 0.00 0.00 0.00 73 1021.1
20260506164524 63 208 2.6 7.0 0.00 0.00 0.00 75 1021.0
20260506164024 62 208 1.7 7.0 0.00 0.00 0.00 76 1021.0
20260506163503 61 222 2.6 5.2 0.00 0.00 0.00 75 1021.0
20260506163003 61 233 2.6 6.1 0.00 0.00 0.00 74 1021.0
20260506162503 62 238 2.6 6.1 0.00 0.00 0.00 74 1021.1
20260506162003 62 241 2.6 7.0 0.00 0.00 0.00 74 1021.1
20260506161503 62 230 1.7 7.0 0.00 0.00 0.00 76 1021.1
20260506161003 60 218 1.7 4.3 0.00 0.00 0.00 78 1021.0
20260506160503 60 222 1.7 3.5 0.00 0.00 0.00 78 1021.0
20260506160003 59 234 1.7 3.5 0.00 0.00 0.00 78 1021.0
20260506155503 59 241 1.7 4.3 0.00 0.00 0.00 79 1021.0
20260506155003 58 244 1.7 7.0 0.00 0.00 0.00 79 1021.0
20260506154503 59 249 0.9 7.0 0.00 0.00 0.00 80 1021.1
20260506154003 59 246 0.9 6.1 0.00 0.00 0.00 80 1021.0
20260506153503 58 231 1.7 6.1 0.00 0.00 0.00 79 1021.0
20260506153003 58 214 1.7 5.2 0.00 0.00 0.00 80 1021.0
20260506152503 58 228 1.7 6.1 0.00 0.00 0.00 79 1021.0
20260506152003 59 247 1.7 6.1 0.00 0.00 0.00 80 1021.0
20260506151503 59 249 1.7 5.2 0.00 0.00 0.00 80 1020.9
20260506151003 59 246 1.7 4.3 0.00 0.00 0.00 81 1020.9
20260506150503 58 242 1.7 4.3 0.00 0.00 0.00 82 1020.9
20260506150003 57 239 1.7 6.1 0.00 0.00 0.00 83 1020.8
20260506145503 57 231 2.6 6.1 0.00 0.00 0.00 84 1020.9
20260506145003 57 236 1.7 5.2 0.00 0.00 0.00 86 1020.9
20260506144503 56 251 1.7 4.3 0.00 0.00 0.00 86 1020.8
20260506144003 56 245 2.6 5.2 0.00 0.00 0.00 87 1020.8
20260506143503 55 240 1.7 5.2 0.00 0.00 0.00 86 1020.8
20260506143003 55 220 1.7 6.1 0.00 0.00 0.00 86 1020.8
20260506142503 54 228 2.6 7.8 0.00 0.00 0.00 86 1020.8
20260506142003 54 243 1.7 7.8 0.00 0.00 0.00 86 1020.7
20260506141524 54 241 1.7 5.2 0.00 0.00 0.00 86 1020.6
20260506141003 54 238 1.7 5.2 0.00 0.00 0.00 86 1020.5
20260506140503 53 234 1.7 5.2 0.00 0.00 0.00 86 1020.5
20260506140003 53 233 0.9 3.5 0.00 0.00 0.00 86 1020.5
20260506135503 53 235 0.0 3.5 0.00 0.00 0.00 86 1020.4
20260506135003 53 240 0.0 1.7 0.00 0.00 0.00 86 1020.3
20260506134503 53 92 0.0 1.7 0.00 0.00 0.00 86 1020.3
20260506134003 53 81 0.0 1.7 0.00 0.00 0.00 86 1020.3
20260506133503 53 79 0.0 0.9 0.00 0.00 0.00 86 1020.3
20260506133003 54 312 0.0 1.7 0.00 0.00 0.00 86 1020.3
20260506132503 53 293 0.0 1.7 0.00 0.00 0.00 86 1020.2
20260506132003 53 288 0.0 1.7 0.00 0.00 0.00 86 1020.2
20260506131503 53 288 0.0 0.9 0.00 0.00 0.00 86 1020.2
20260506131003 53 290 0.0 1.7 0.00 0.00 0.00 86 1020.1
20260506130503 53 273 0.9 5.2 0.00 0.00 0.00 86 1020.1
20260506130003 53 267 0.9 5.2 0.00 0.00 0.00 85 1020.1
20260506125503 53 283 0.0 0.9 0.00 0.00 0.00 85 1020.1
20260506125003 53 283 0.0 0.9 0.00 0.00 0.00 85 1020.0
20260506124503 53 285 0.0 1.7 0.00 0.00 0.00 85 1020.0
20260506124003 53 293 0.0 1.7 0.00 0.00 0.00 85 1020.0
20260506123503 53 304 0.0 1.7 0.00 0.00 0.00 85 1020.0
20260506123003 53 307 0.0 1.7 0.00 0.01 0.00 85 1019.9
20260506122503 53 308 0.0 1.7 0.00 0.01 0.00 85 1019.9
20260506122003 53 299 0.0 1.7 0.00 0.01 0.00 85 1019.9
20260506121503 53 297 0.0 1.7 0.00 0.01 0.00 85 1019.8
20260506121003 53 303 0.9 2.6 0.00 0.01 0.00 85 1019.9
20260506120503 53 316 0.9 2.6 0.00 0.01 0.00 85 1019.8
20260506120003 53 324 0.9 2.6 0.00 0.01 0.00 85 1019.8
20260506115503 53 325 0.0 1.7 0.00 0.01 0.00 85 1019.8
20260506115003 53 301 0.9 4.3 0.00 0.01 0.00 85 1019.8
20260506114503 53 302 0.9 4.3 0.00 0.01 0.00 85 1019.7
20260506114003 53 312 0.9 3.5 0.00 0.01 0.00 85 1019.7
20260506113524 53 305 0.9 3.5 0.00 0.01 0.00 85 1019.7
20260506113003 52 303 0.9 2.6 0.00 0.01 0.00 85 1019.6
20260506112503 52 303 0.9 2.6 0.00 0.01 0.00 85 1019.6
20260506112003 52 312 0.9 2.6 0.00 0.01 0.00 85 1019.5
20260506111503 52 326 0.9 2.6 0.00 0.01 0.00 85 1019.5
20260506111003 52 312 0.9 2.6 0.00 0.01 0.00 84 1019.4
20260506110503 52 307 0.9 2.6 0.00 0.01 0.00 84 1019.4
20260506110024 52 312 0.9 2.6 0.00 0.01 0.00 84 1019.4
20260506105503 52 303 0.9 2.6 0.00 0.01 0.00 84 1019.3
20260506105003 52 319 0.9 2.6 0.00 0.01 0.00 84 1019.3
20260506104503 52 319 0.9 3.5 0.00 0.01 0.00 84 1019.4
20260506104003 52 302 0.9 3.5 0.00 0.01 0.00 84 1019.3
20260506103503 52 295 0.0 2.6 0.00 0.01 0.00 84 1019.3
20260506103003 52 271 0.0 2.6 0.00 0.01 0.00 84 1019.3
20260506102503 52 250 0.9 2.6 0.00 0.01 0.00 84 1019.3
20260506102003 52 249 0.9 2.6 0.00 0.01 0.00 84 1019.2
20260506101503 52 265 0.9 2.6 0.00 0.01 0.00 84 1019.2
20260506101003 52 272 0.9 2.6 0.00 0.01 0.00 84 1019.2
20260506100503 52 267 0.9 2.6 0.00 0.01 0.00 84 1019.2
20260506100003 53 267 0.0 2.6 0.00 0.01 0.00 84 1019.2
20260506095503 53 285 0.0 0.9 0.00 0.01 0.00 84 1019.3
20260506095003 53 286 0.0 1.7 0.00 0.01 0.00 84 1019.3
20260506094524 53 290 0.0 1.7 0.00 0.01 0.00 84 1019.3
20260506094003 53 285 0.0 1.7 0.00 0.01 0.00 84 1019.3
20260506093503 53 274 0.0 1.7 0.00 0.01 0.00 84 1019.3
20260506093003 53 241 0.9 1.7 0.00 0.01 0.00 84 1019.3
20260506092503 53 231 0.9 2.6 0.00 0.01 0.00 84 1019.2
20260506092003 54 234 0.9 2.6 0.00 0.01 0.00 84 1019.2
20260506091524 54 250 0.9 3.5 0.00 0.01 0.00 84 1019.1
20260506091003 54 254 1.7 3.5 0.00 0.01 0.00 84 1019.1
20260506090503 54 253 0.9 2.6 0.00 0.01 0.00 84 1019.2
20260506090003 54 268 0.9 2.6 0.00 0.01 0.00 84 1019.2
20260506085503 54 287 0.9 3.5 0.00 0.01 0.00 84 1019.2
20260506085003 54 287 0.9 3.5 0.00 0.01 0.00 84 1019.2
20260506084503 54 281 0.9 4.3 0.00 0.01 0.00 84 1019.2
20260506084003 54 257 1.7 4.3 0.00 0.01 0.00 84 1019.2
20260506083503 54 251 1.7 5.2 0.00 0.01 0.00 84 1019.2
20260506083003 54 249 1.7 5.2 0.00 0.01 0.00 84 1019.2
20260506082503 54 252 1.7 5.2 0.00 0.01 0.00 84 1019.3
20260506082003 54 253 0.9 5.2 0.00 0.01 0.00 84 1019.3
20260506081503 54 256 1.7 4.3 0.00 0.01 0.00 84 1019.3
20260506081003 54 262 1.7 4.3 0.00 0.01 0.00 84 1019.3
20260506080503 54 263 1.7 3.5 0.00 0.01 0.00 84 1019.3
20260506073503 54 273 0.9 4.3 0.00 0.01 0.00 83 1019.0
20260506073003 54 277 0.9 4.3 0.00 0.01 0.00 83 1019.0
20260506072503 54 281 0.9 4.3 0.00 0.01 0.00 83 1019.0
20260506072003 55 277 0.9 4.3 0.00 0.01 0.00 83 1019.0
20260506071503 55 283 0.9 4.3 0.00 0.02 0.00 83 1019.0
20260506071003 55 291 0.9 3.5 0.00 0.02 0.00 83 1019.0
20260506070503 55 284 1.7 6.1 0.00 0.02 0.00 83 1019.0
20260506062503 55 271 1.7 5.2 0.00 0.02 0.02 83 1018.6
20260506062024 55 263 1.7 4.3 0.00 0.02 0.02 83 1018.5
20260506061503 55 264 1.7 5.2 0.00 0.02 0.02 83 1018.5
20260506061024 55 268 1.7 6.1 0.00 0.02 0.02 83 1018.5
20260506060503 55 271 1.7 6.1 0.00 0.02 0.02 83 1018.5